Location: Centrum přírodních věd - Hvězdárna Jičín
(50.4344°N, 15.3406°E)
Time: 02:50:54
(UTC+02:00)

ISS - Visible Passes

Search period start: 08 May 2021 00:00
Search period end: 18 May 2021 00:00
Orbit: 418 x 421 km, 51.6° (Epoch: 07 May)

Date Brightness Start Highest point End Pass type
(mag) Time Alt. Az. Time Alt. Az. Time Alt. Az.
08 May -0.9 01:16:28 11° E 01:16:28 11° E 01:16:36 10° E visible
08 May -3.8 02:49:24 49° WSW 02:50:13 89° NNW 02:53:37 10° ENE visible
08 May -3.5 04:23:46 10° W 04:27:09 72° N 04:30:33 10° E visible
09 May -3.3 02:03:26 54° E 02:03:26 54° E 02:06:10 10° ENE visible
09 May -3.5 03:36:23 10° W 03:39:41 69° N 03:43:04 10° E visible
10 May -1.7 01:17:27 21° E 01:17:27 21° E 01:18:43 10° ENE visible
10 May -3.5 02:50:23 25° W 02:52:13 71° N 02:55:36 10° E visible
10 May -3.8 04:25:45 10° WNW 04:29:08 85° SSW 04:32:32 10° ESE visible
11 May -3.7 02:04:21 64° WNW 02:04:45 77° N 02:08:09 10° ENE visible
11 May -3.7 03:38:18 10° WNW 03:41:42 81° N 03:45:06 10° E visible
12 May -2.9 01:18:17 44° ENE 01:18:17 44° ENE 01:20:42 10° ENE visible
12 May -3.6 02:51:12 12° W 02:54:14 73° N 02:57:37 10° E visible
12 May -3.5 04:27:44 10° WNW 04:31:01 50° SSW 04:34:18 10° SE visible
13 May -1.7 00:32:07 20° ENE 00:32:07 20° ENE 00:33:16 10° ENE visible
13 May -3.5 02:05:02 26° WNW 02:06:46 69° N 02:10:09 10° E visible
13 May -3.8 03:40:16 10° WNW 03:43:38 67° SSW 03:47:00 10° ESE visible
13 May -1.0 23:45:45 10° ENE 23:45:45 10° ENE 23:45:48 10° ENE visible
14 May -3.6 01:18:39 52° WNW 01:19:18 71° N 01:22:41 10° E visible
14 May -3.9 02:52:50 10° WNW 02:56:13 85° SSW 02:59:36 10° ESE visible
14 May -2.6 04:29:54 10° W 04:32:45 25° SW 04:35:35 10° SSE visible
14 May -3.4 22:51:56 10° SW 22:55:07 41° SSE 22:58:19 10° E visible
15 May -3.7 00:28:27 10° W 00:31:50 77° N 00:35:13 10° ENE visible
15 May -3.7 02:05:22 10° WNW 02:08:46 81° N 02:12:09 10° E visible
15 May -3.2 03:42:18 10° W 03:45:26 35° SSW 03:48:33 10° SE visible
15 May -2.9 22:04:49 10° SSW 22:07:47 29° SSE 22:10:46 10° E visible
15 May -3.8 23:40:59 10° WSW 23:44:22 88° N 23:47:46 10° ENE visible
16 May -3.6 01:17:56 10° W 01:21:18 73° N 01:24:41 10° E visible
16 May -3.6 02:54:48 10° WNW 02:58:05 49° SSW 03:01:22 10° SE visible
16 May -2.4 21:17:56 10° SSW 21:20:30 20° SE 21:23:05 10° E visible
16 May -3.9 22:53:34 10° WSW 22:56:57 75° SSE 23:00:19 10° ENE visible
17 May -3.5 00:30:27 10° W 00:33:50 69° N 00:37:12 10° E visible
17 May -3.9 02:07:20 10° WNW 02:10:42 67° SSW 02:14:03 10° ESE visible
17 May -2.2 03:45:05 12° WSW 03:47:04 17° SW 03:49:23 10° S visible
17 May -3.7 22:06:14 10° SW 22:09:32 57° SSE 22:12:51 10° ENE visible
17 May -3.5 23:42:58 10° W 23:46:21 70° N 23:49:44 10° E visible
